Lid_Strength_Index
11 11 11 10 10 10 9 8 7 8 8 7 7 7 7 7 7 7 7 6 6 6
11 11 11 11 11 11 10 9 9 8 8 8 8 8 8 8 8 8 7 7 6 6
11 10 11 11 11 11 10 10 10 9 9 9 9 8 8 9 8 8 8 7 8 7
11 10 10 10 10 10 10 10 10 10 10 10 9 9 9 9 9 9 9 9 9 8
10 10 10 10 10 10 10 10 10 10 10 10 9 9 10 10 9 9 9 9 9 9
11 11 11 11 11 11 11 11 10 10 10 10 10 10 9 9 9 9 9 9 9 9
12 11 11 11 11 11 11 11 11 11 10 10 10 10 10 9 10 10 9 10 9 9
12 12 12 12 12 12 12 11 11 11 11 10 10 9 10 10 11 11 10 11 10 10
13 14 13 13 13 13 13 12 12 12 12 12 10 8 8 8 10 10 11 11 11 11
14 14 14 13 13 13 13 13 13 13 12 12 12 9 9 9 10 11 11 11 11 11
15 14 14 14 14 14 14 14 14 13 13 13 12 10 10 10 11 11 11 11 11 11
15 15 15 15 15 15 15 15 14 13 13 13 13 11 10 11 12 12 12 11 11 11
16 16 17 16 16 15 15 14 14 14 13 13 13 11 11 11 11 12 12 12 11 10
18 18 17 16 17 16 16 15 16 15 15 14 14 13 11 11 12 12 12 12 12 11